When you browse on this site, cookies collect data to enhance your experience and personalize the content and advertising you see.
Visit our Privacy Policy to learn more. By continuing to use the site, you agree to this use of cookies and data.
EN

Hourly Weather Berettyoujfalu

Today, 13 July, Monday

Time Temperature Precipitation Wind Pressure Humidity
00:00 +12°C° 0 mm 4 mps 758 mmHg 79%
01:00 +12°C° 0 mm 3 mps 758 mmHg 82%
02:00 +12°C° 0 mm 3 mps 758 mmHg 82%
03:00 +12°C° 0 mm 3 mps 758 mmHg 82%
04:00 +11°C° 0 mm 3 mps 757 mmHg 82%
05:00 +13°C° 0 mm 4 mps 758 mmHg 78%
06:00 +14°C° 0 mm 4 mps 758 mmHg 74%
07:00 +16°C° 0 mm 5 mps 758 mmHg 70%
08:00 +17°C° 0 mm 5 mps 757 mmHg 65%
09:00 +19°C° 0 mm 5 mps 757 mmHg 60%
10:00 +21°C° 0 mm 5 mps 757 mmHg 55%
11:00 +21°C° 0 mm 5 mps 757 mmHg 53%
12:00 +22°C° 0 mm 5 mps 757 mmHg 51%
13:00 +22°C° 0 mm 5 mps 757 mmHg 48%
14:00 +22°C° 0 mm 5 mps 756 mmHg 49%
15:00 +22°C° 0 mm 5 mps 756 mmHg 50%
16:00 +22°C° 0 mm 5 mps 755 mmHg 50%
17:00 +20°C° 0 mm 4 mps 755 mmHg 57%
18:00 +19°C° 0 mm 3 mps 755 mmHg 64%
19:00 +18°C° 0 mm 3 mps 755 mmHg 70%
20:00 +17°C° 0 mm 3 mps 755 mmHg 72%
21:00 +16°C° 0 mm 3 mps 755 mmHg 74%
22:00 +15°C° 0 mm 2 mps 755 mmHg 75%
23:00 +14°C° 0 mm 2 mps 755 mmHg 78%

Tomorrow, 14 July, Tuesday

Time Temperature Precipitation Wind Pressure Humidity
00:00 +13°C° 0 mm 2 mps 755 mmHg 81%
01:00 +13°C° 0 mm 2 mps 755 mmHg 83%
02:00 +12°C° 0 mm 2 mps 755 mmHg 85%
03:00 +12°C° 0 mm 2 mps 755 mmHg 87%
04:00 +12°C° 0 mm 2 mps 755 mmHg 88%
05:00 +12°C° 0 mm 3 mps 755 mmHg 83%
06:00 +14°C° 0 mm 3 mps 755 mmHg 78%
07:00 +17°C° 0 mm 3 mps 755 mmHg 73%
08:00 +18°C° 0 mm 3 mps 755 mmHg 67%
09:00 +20°C° 0 mm 3 mps 755 mmHg 61%
10:00 +21°C° 0 mm 3 mps 754 mmHg 54%
11:00 +22°C° 0 mm 3 mps 754 mmHg 51%
12:00 +24°C° 0 mm 3 mps 754 mmHg 49%
13:00 +25°C° 0 mm 3 mps 754 mmHg 46%
14:00 +25°C° 0 mm 3 mps 753 mmHg 46%
15:00 +25°C° 0 mm 3 mps 753 mmHg 47%
16:00 +25°C° 0 mm 3 mps 753 mmHg 47%
17:00 +23°C° 0 mm 2 mps 753 mmHg 54%
18:00 +21°C° 0 mm 2 mps 753 mmHg 60%
19:00 +19°C° 0 mm 2 mps 753 mmHg 66%
20:00 +19°C° 0 mm 1 mps 753 mmHg 68%
21:00 +18°C° 0 mm 1 mps 753 mmHg 70%
22:00 +16°C° 0 mm 1 mps 753 mmHg 71%
23:00 +16°C° 0 mm 1 mps 753 mmHg 72%

Day after tomorrow, 15 July, Wednesday

Time Temperature Precipitation Wind Pressure Humidity
00:00 +15°C° 0 mm 1 mps 753 mmHg 74%
01:00 +15°C° 0 mm 1 mps 753 mmHg 75%
02:00 +15°C° 0 mm 1 mps 753 mmHg 77%
03:00 +14°C° 0 mm 1 mps 753 mmHg 78%
04:00 +14°C° 0 mm 1 mps 753 mmHg 80%
05:00 +16°C° 0 mm 1 mps 753 mmHg 75%
06:00 +19°C° 0 mm 1 mps 753 mmHg 71%
07:00 +20°C° 0 mm 1 mps 753 mmHg 67%
08:00 +22°C° 0 mm 1 mps 753 mmHg 62%
09:00 +24°C° 0 mm 1 mps 753 mmHg 57%
10:00 +25°C° 0 mm 1 mps 753 mmHg 52%
11:00 +26°C° 0 mm 2 mps 753 mmHg 50%
12:00 +27°C° 0 mm 2 mps 752 mmHg 48%
13:00 +28°C° 0 mm 3 mps 752 mmHg 46%
14:00 +28°C° 0 mm 3 mps 752 mmHg 48%
15:00 +28°C° 0 mm 2 mps 752 mmHg 49%
16:00 +28°C° 0 mm 2 mps 752 mmHg 50%
17:00 +26°C° 0 mm 2 mps 752 mmHg 55%
18:00 +25°C° 0 mm 2 mps 751 mmHg 61%
19:00 +23°C° 0 mm 1 mps 751 mmHg 67%
20:00 +23°C° 0.1 mm 1 mps 751 mmHg 68%
21:00 +22°C° 0.1 mm 1 mps 752 mmHg 70%
22:00 +21°C° 0.1 mm 1 mps 752 mmHg 72%
23:00 +21°C° 0.2 mm 1 mps 752 mmHg 74%

16 July, Thursday

Time Temperature Precipitation Wind Pressure Humidity
00:00 +20°C° 0.2 mm 1 mps 752 mmHg 76%
01:00 +19°C° 0.2 mm 1 mps 752 mmHg 77%
02:00 +19°C° 0 mm 1 mps 751 mmHg 80%
03:00 +18°C° 0 mm 1 mps 751 mmHg 83%
04:00 +18°C° 0 mm 1 mps 751 mmHg 85%
05:00 +19°C° 0 mm 1 mps 751 mmHg 82%
06:00 +20°C° 0 mm 1 mps 751 mmHg 78%
07:00 +22°C° 0 mm 1 mps 752 mmHg 75%
08:00 +23°C° 0.3 mm 2 mps 751 mmHg 69%
09:00 +25°C° 0.3 mm 2 mps 751 mmHg 63%
10:00 +26°C° 0.3 mm 2 mps 751 mmHg 57%
11:00 +27°C° 0.1 mm 2 mps 751 mmHg 54%
12:00 +27°C° 0.1 mm 3 mps 751 mmHg 50%
13:00 +28°C° 0.1 mm 3 mps 751 mmHg 46%
14:00 +28°C° 0 mm 3 mps 751 mmHg 48%
15:00 +27°C° 0 mm 3 mps 751 mmHg 50%
16:00 +27°C° 0 mm 3 mps 750 mmHg 52%
17:00 +25°C° 0.4 mm 3 mps 750 mmHg 60%
18:00 +24°C° 0.4 mm 2 mps 750 mmHg 68%
19:00 +21°C° 0.4 mm 2 mps 751 mmHg 77%
20:00 +20°C° 0.2 mm 2 mps 751 mmHg 79%
21:00 +20°C° 0.2 mm 1 mps 751 mmHg 82%
22:00 +19°C° 0.2 mm 1 mps 751 mmHg 85%
23:00 +19°C° 0 mm 1 mps 751 mmHg 86%

17 July, Friday

Time Temperature Precipitation Wind Pressure Humidity
00:00 +18°C° 0 mm 1 mps 751 mmHg 88%
01:00 +18°C° 0 mm 1 mps 751 mmHg 90%
02:00 +18°C° 0 mm 1 mps 751 mmHg 90%
03:00 +16°C° 0 mm 1 mps 751 mmHg 91%
04:00 +16°C° 0 mm 2 mps 750 mmHg 92%
05:00 +17°C° 0 mm 2 mps 751 mmHg 89%
06:00 +18°C° 0 mm 2 mps 751 mmHg 86%
07:00 +19°C° 0 mm 2 mps 751 mmHg 83%
08:00 +20°C° 0 mm 2 mps 751 mmHg 78%
09:00 +21°C° 0 mm 2 mps 751 mmHg 74%
10:00 +23°C° 0 mm 2 mps 751 mmHg 70%
11:00 +23°C° 0.6 mm 2 mps 751 mmHg 71%
12:00 +23°C° 0.6 mm 1 mps 751 mmHg 72%
13:00 +23°C° 0.6 mm 1 mps 751 mmHg 73%
14:00 +23°C° 0.2 mm 1 mps 751 mmHg 72%
15:00 +23°C° 0.2 mm 1 mps 751 mmHg 71%
16:00 +23°C° 0.2 mm 1 mps 751 mmHg 71%
17:00 +23°C° 0.3 mm 1 mps 751 mmHg 73%
18:00 +22°C° 0.3 mm 1 mps 751 mmHg 76%
19:00 +21°C° 0.3 mm 1 mps 751 mmHg 79%
20:00 +21°C° 0 mm 1 mps 751 mmHg 80%
21:00 +20°C° 0 mm 1 mps 751 mmHg 82%
22:00 +20°C° 0 mm 1 mps 751 mmHg 84%
23:00 +18°C° 0 mm 2 mps 751 mmHg 85%

18 July, Saturday

Time Temperature Precipitation Wind Pressure Humidity
00:00 +18°C° 0 mm 2 mps 751 mmHg 86%
01:00 +18°C° 0 mm 3 mps 751 mmHg 88%
02:00 +18°C° 0 mm 3 mps 751 mmHg 89%
03:00 +17°C° 0 mm 3 mps 751 mmHg 90%
04:00 +17°C° 0 mm 3 mps 750 mmHg 91%
05:00 +17°C° 0.1 mm 3 mps 750 mmHg 91%
06:00 +17°C° 0.1 mm 3 mps 750 mmHg 90%
07:00 +18°C° 0.1 mm 3 mps 750 mmHg 90%
08:00 +18°C° 0.5 mm 3 mps 750 mmHg 91%
09:00 +18°C° 0.5 mm 3 mps 751 mmHg 92%
10:00 +18°C° 0.5 mm 3 mps 751 mmHg 93%
11:00 +18°C° 0.2 mm 3 mps 751 mmHg 92%
12:00 +19°C° 0.2 mm 4 mps 751 mmHg 91%
13:00 +19°C° 0.2 mm 4 mps 751 mmHg 90%
14:00 +19°C° 0 mm 4 mps 750 mmHg 89%
15:00 +20°C° 0 mm 4 mps 750 mmHg 88%
16:00 +20°C° 0 mm 5 mps 750 mmHg 87%
17:00 +20°C° 0 mm 5 mps 750 mmHg 88%
18:00 +20°C° 0 mm 5 mps 750 mmHg 88%
19:00 +19°C° 0 mm 5 mps 750 mmHg 88%
20:00 +19°C° 0 mm 4 mps 750 mmHg 88%
21:00 +19°C° 0 mm 4 mps 750 mmHg 89%
22:00 +18°C° 0 mm 4 mps 750 mmHg 89%
23:00 +18°C° 0 mm 4 mps 750 mmHg 88%
Show more